Starlink 11207

operational
NORAD ID: 60933 Int'l Des: 2024-155 Owner: SPXS Country: US Constellation: starlink
LEOCIRCULAR

About Starlink 11207

Description loading...

Live Position

Loading 3D Globe...

Upcoming Passes

Altitude History

Altitude vs Time

uPlot chart will show altitude changes over time

Two-Line Element Set

1 60933U 24155K 25305.12650203 .00004803 00000-0 44433-4 0 9999
2 60933 53.1597 254.7587 0001243 105.4375 254.6780 15.69736345 68214
Epoch: Nov 1, 2025 • Age: 24 hours

Current Status

Altitude 363.2 km
Velocity 7.69 km/s
Sub-Earth Point -11.58°S, 147.95°E
Launch Date Aug 31, 2024
Age 1.1 years
Type internet

Technical Details

Classification Payload
Mass 960.00 kg
Dry Mass 910.00 kg
Total Mass 960.00 kg
Length 0.30 m
Diameter 4.10 m
Span 29.00 m
Shape Box + pan
Manufacturer SPXS
Bus Type Starlink V2MD
Phase Status In Orbit
Owner/State SPXS/US

Large Constellations

Loading constellations...